GAOFEN-9 01

Last updated on Sun Sep 20 2026 00:02:44 GMT+0000 (Coordinated Universal Time)

1 40894U 15047A 26262.52629770 .00000520 00000+0 69855-4 0 9991 2 40894 97.6217 293.9120 0027029 187.2435 172.8392 14.83025145594176
UTC large
Height (km)
Speed (km/s)
/
Latitude / Longitude
Inclination (degrees)
Orbital Period (minutes)
Azimuth
Elevation
Range (km)
Doppler Factor

Next 0 passes for location: London (51.5072 / 0.1276)

No passes found over London.
GAOFEN-9 01